Imperial, NE

6:28 PM MDT on September 23, 2017 (GMT -0600)
Imperial Municipal

Weather History for KIML - March, 2015

Change the Weather History Date:

Wednesday, March 18, 2015

  Actual Average Record
Temperature  
Mean Temperature 43 °F 41 °F  
Max Temperature 59 °F 55 °F 83 °F (2012)
Min Temperature 26 °F 26 °F -7 °F (1907)
Degree Days  
Heating Degree Days 22 24  
Month to date heating degree days 409 485  
Cooling Degree Days 0 0  
Month to date cooling degree days 0 0  
Year to date cooling degree days 0 0  
Moisture  
Dew Point 16 °F    
Average Humidity 38    
Maximum Humidity 51    
Minimum Humidity 24    
Precipitation  
Precipitation 0.00 in 0.03 in 0.90 in (1906)
Sea Level Pressure  
Sea Level Pressure 30.05 in    
Wind  
Wind Speed 12 mph (SE)    
Max Wind Speed 22 mph    
Max Gust Speed 28 mph    
T = Trace of Precipitation, MM = Missing Value Source: NWS Daily Summary

Daily Weather History Graph

Daily Weather History Graph

Search for Another Location

Airport or City:

Trip Planner

Search our weather history database for the weather conditions in past years. The results will help you decide how hot, cold, wet, or windy it might be!

Date:

Astronomy

Mar. 18, 2015 Rise Set
Actual Time 6:53 AM MDT 6:56 PM MDT
Civil Twilight 6:26 AM MDT 7:23 PM MDT
Nautical Twilight 5:54 AM MDT 7:55 PM MDT
Astronomical Twilight 5:22 AM MDT 8:27 PM MDT
Moon 5:38 AM MDT (3/18) 5:14 PM MDT (3/18)
Length of Visible Light 12h 57m
Length of Day
12h 02m
Waning Crescent, 4% of the Moon is Illuminated
Mar 18
Waning Crescent
Mar 20
New
Mar 27
First Quarter
Apr 4
Full
Apr 11
Last Quarter

Hourly Weather History & Observations

Time (MDT) Temp. Windchill Dew Point Humidity Pressure Visibility Wind Dir Wind Speed Gust Speed Precip Events Conditions
12:53 AM 28.0 °F 19.3 °F 5.0 °F 38% 30.25 in - SE 9.2 mph - N/A   Unknown
1:53 AM 28.9 °F 19.2 °F 7.0 °F 40% 30.22 in - SSE 11.5 mph - N/A   Unknown
2:53 AM 28.9 °F 21.9 °F 8.1 °F 41% 30.19 in - SSE 6.9 mph - N/A   Unknown
3:53 AM 30.9 °F 22.2 °F 9.0 °F 40% 30.15 in - SE 10.4 mph - N/A   Unknown
4:53 AM 34.0 °F 26.0 °F 10.0 °F 37% 30.12 in - SE 10.4 mph - N/A   Unknown
5:53 AM 34.0 °F 26.0 °F 10.0 °F 37% 30.11 in - SE 10.4 mph - N/A   Unknown
6:53 AM 30.9 °F 22.2 °F 10.9 °F 43% 30.12 in - SE 10.4 mph - N/A   Unknown
7:53 AM 33.1 °F 24.4 °F 10.9 °F 40% 30.13 in - SE 11.5 mph - N/A   Unknown
8:53 AM 37.0 °F 27.4 °F 10.9 °F 34% 30.11 in - SSE 17.3 mph - N/A   Unknown
9:53 AM 44.1 °F 36.5 °F 12.9 °F 28% 30.09 in - SSE 17.3 mph - N/A   Unknown
10:53 AM 46.9 °F - 14.0 °F 27% 30.07 in - South 15.0 mph 24.2 mph N/A   Unknown
11:53 AM 50.0 °F - 16.0 °F 26% 30.04 in - South 13.8 mph 27.6 mph N/A   Unknown
12:53 PM 54.0 °F - 17.1 °F 23% 30.01 in - South 13.8 mph 25.3 mph N/A   Unknown
1:53 PM 55.9 °F - 19.0 °F 24% 29.98 in - South 13.8 mph 19.6 mph N/A   Unknown
2:53 PM 57.9 °F - 21.0 °F 24% 29.95 in - SSE 13.8 mph 17.3 mph N/A   Unknown
3:53 PM 57.0 °F - 21.9 °F 26% 29.94 in - SSE 12.7 mph - N/A   Unknown
4:53 PM 59.0 °F - 24.1 °F 26% 29.91 in - SSE 13.8 mph - N/A   Unknown
5:53 PM 57.0 °F - 24.1 °F 28% 29.91 in - SE 10.4 mph - N/A   Unknown
6:53 PM 52.0 °F - 23.0 °F 32% 29.92 in - ESE 9.2 mph - N/A   Unknown
7:53 PM 46.9 °F - 23.0 °F 39% 29.95 in - North - - N/A   Unknown
8:53 PM 46.9 °F - 23.0 °F 39% 29.98 in - ESE 9.2 mph - N/A   Unknown
9:53 PM 44.1 °F 39.0 °F 23.0 °F 43% 29.99 in - SE 9.2 mph - N/A   Unknown
10:53 PM 39.9 °F 33.4 °F 23.0 °F 51% 30.01 in - SE 10.4 mph - N/A   Unknown
11:53 PM 41.0 °F 34.3 °F 25.0 °F 53% 30.01 in - SE 11.5 mph - N/A   Unknown